• In Hungary
  • List of Countries
  • For 7 days
  • Water Temperature
  • Satellite Maps
  • Weather Map
  • News
  • Weather Widgets
  • user-avatar
    Login

    Hourly Weather Glazachi

    Today, 23 July, Monday

    Time Temperature Precipitation Wind Pressure Humidity
    00:00 +17°C° 0 mm 2 mps 744 mmHg 98%
    01:00 +17°C° 0 mm 2 mps 744 mmHg 98%
    02:00 +17°C° 0 mm 2 mps 744 mmHg 98%
    03:00 +17°C° 0 mm 2 mps 744 mmHg 97%
    04:00 +17°C° 0 mm 2 mps 744 mmHg 97%
    05:00 +17°C° 0 mm 2 mps 745 mmHg 96%
    06:00 +19°C° 0 mm 2 mps 745 mmHg 90%
    07:00 +20°C° 0 mm 2 mps 745 mmHg 83%
    08:00 +22°C° 0 mm 3 mps 745 mmHg 77%
    09:00 +24°C° 0.2 mm 3 mps 745 mmHg 75%
    10:00 +24°C° 0.2 mm 3 mps 745 mmHg 72%
    11:00 +25°C° 0.2 mm 3 mps 745 mmHg 70%
    12:00 +25°C° 0.5 mm 3 mps 745 mmHg 73%
    13:00 +25°C° 0.5 mm 3 mps 745 mmHg 76%
    14:00 +24°C° 0.5 mm 3 mps 745 mmHg 79%
    15:00 +24°C° 0.2 mm 3 mps 745 mmHg 78%
    16:00 +24°C° 0.2 mm 3 mps 745 mmHg 77%
    17:00 +24°C° 0.2 mm 3 mps 745 mmHg 76%
    18:00 +23°C° 0.1 mm 2 mps 745 mmHg 82%
    19:00 +20°C° 0.1 mm 2 mps 745 mmHg 87%
    20:00 +19°C° 0.1 mm 2 mps 745 mmHg 93%
    21:00 +18°C° 0 mm 2 mps 745 mmHg 94%
    22:00 +18°C° 0 mm 2 mps 745 mmHg 96%
    23:00 +17°C° 0 mm 2 mps 746 mmHg 97%

    Tomorrow, 24 July, Tuesday

    Time Temperature Precipitation Wind Pressure Humidity
    00:00 +16°C° 0 mm 2 mps 746 mmHg 97%
    01:00 +16°C° 0 mm 2 mps 746 mmHg 98%
    02:00 +16°C° 0 mm 2 mps 746 mmHg 98%
    03:00 +16°C° 0 mm 2 mps 746 mmHg 97%
    04:00 +16°C° 0 mm 2 mps 746 mmHg 97%
    05:00 +16°C° 0 mm 2 mps 746 mmHg 96%
    06:00 +17°C° 0 mm 2 mps 746 mmHg 93%
    07:00 +18°C° 0 mm 2 mps 746 mmHg 89%
    08:00 +19°C° 0 mm 3 mps 746 mmHg 85%
    09:00 +19°C° 0 mm 3 mps 747 mmHg 83%
    10:00 +20°C° 0 mm 3 mps 747 mmHg 80%
    11:00 +20°C° 0 mm 3 mps 747 mmHg 78%
    12:00 +21°C° 0 mm 3 mps 747 mmHg 76%
    13:00 +22°C° 0 mm 3 mps 746 mmHg 73%
    14:00 +24°C° 0 mm 3 mps 746 mmHg 71%
    15:00 +24°C° 0 mm 3 mps 746 mmHg 72%
    16:00 +24°C° 0 mm 3 mps 746 mmHg 74%
    17:00 +24°C° 0 mm 3 mps 746 mmHg 75%
    18:00 +22°C° 0 mm 3 mps 746 mmHg 81%
    19:00 +20°C° 0 mm 2 mps 746 mmHg 87%
    20:00 +19°C° 0 mm 2 mps 747 mmHg 93%
    21:00 +19°C° 0 mm 2 mps 747 mmHg 95%
    22:00 +18°C° 0 mm 2 mps 747 mmHg 96%
    23:00 +18°C° 0 mm 2 mps 747 mmHg 98%

    Day after tomorrow, 25 July, Wednesday

    Time Temperature Precipitation Wind Pressure Humidity
    00:00 +18°C° 0 mm 2 mps 747 mmHg 98%
    01:00 +17°C° 0 mm 2 mps 747 mmHg 99%
    02:00 +17°C° 0 mm 2 mps 747 mmHg 99%
    03:00 +18°C° 0 mm 2 mps 747 mmHg 98%
    04:00 +18°C° 0 mm 2 mps 747 mmHg 98%
    05:00 +18°C° 0 mm 2 mps 747 mmHg 97%
    06:00 +19°C° 0 mm 2 mps 748 mmHg 92%
    07:00 +21°C° 0 mm 2 mps 748 mmHg 88%
    08:00 +23°C° 0 mm 2 mps 748 mmHg 83%
    09:00 +25°C° 0.1 mm 2 mps 748 mmHg 78%
    10:00 +26°C° 0.1 mm 2 mps 748 mmHg 74%
    11:00 +28°C° 0.1 mm 2 mps 748 mmHg 69%
    12:00 +27°C° 0.7 mm 2 mps 748 mmHg 72%
    13:00 +27°C° 0.7 mm 3 mps 748 mmHg 74%
    14:00 +27°C° 0.7 mm 3 mps 747 mmHg 77%
    15:00 +27°C° 0.5 mm 3 mps 748 mmHg 80%
    16:00 +26°C° 0.5 mm 3 mps 748 mmHg 83%
    17:00 +25°C° 0.5 mm 2 mps 748 mmHg 86%
    18:00 +24°C° 0.1 mm 2 mps 748 mmHg 88%
    19:00 +23°C° 0.1 mm 2 mps 748 mmHg 91%
    20:00 +21°C° 0.1 mm 2 mps 748 mmHg 93%
    21:00 +20°C° 0 mm 2 mps 749 mmHg 94%
    22:00 +20°C° 0 mm 2 mps 749 mmHg 95%
    23:00 +19°C° 0 mm 2 mps 749 mmHg 95%

    26 July, Thursday

    Time Temperature Precipitation Wind Pressure Humidity
    00:00 +20°C° 0 mm 1 mps 749 mmHg 95%
    01:00 +19°C° 0 mm 1 mps 750 mmHg 95%
    02:00 +19°C° 0 mm 1 mps 750 mmHg 95%
    03:00 +19°C° 0 mm 1 mps 750 mmHg 94%
    04:00 +19°C° 0 mm 1 mps 750 mmHg 93%
    05:00 +18°C° 0 mm 2 mps 750 mmHg 91%
    06:00 +19°C° 0.1 mm 2 mps 750 mmHg 88%
    07:00 +20°C° 0.1 mm 2 mps 750 mmHg 85%
    08:00 +21°C° 0.1 mm 3 mps 750 mmHg 81%
    09:00 +24°C° 0 mm 3 mps 750 mmHg 73%
    10:00 +26°C° 0 mm 3 mps 750 mmHg 66%
    11:00 +27°C° 0 mm 4 mps 750 mmHg 58%
    12:00 +28°C° 0 mm 4 mps 750 mmHg 55%
    13:00 +29°C° 0 mm 4 mps 750 mmHg 53%
    14:00 +29°C° 0 mm 4 mps 750 mmHg 51%
    15:00 +29°C° 0 mm 4 mps 750 mmHg 54%
    16:00 +29°C° 0 mm 3 mps 750 mmHg 58%
    17:00 +28°C° 0 mm 3 mps 750 mmHg 62%
    18:00 +27°C° 0 mm 3 mps 750 mmHg 70%
    19:00 +25°C° 0 mm 2 mps 750 mmHg 78%
    20:00 +24°C° 0 mm 2 mps 750 mmHg 86%
    21:00 +23°C° 0 mm 2 mps 750 mmHg 89%
    22:00 +21°C° 0 mm 2 mps 750 mmHg 91%
    23:00 +20°C° 0 mm 2 mps 750 mmHg 93%

    27 July, Friday

    Time Temperature Precipitation Wind Pressure Humidity
    00:00 +21°C° 0 mm 1 mps 750 mmHg 93%
    01:00 +21°C° 0 mm 1 mps 750 mmHg 93%
    02:00 +21°C° 0 mm 1 mps 751 mmHg 93%
    03:00 +21°C° 0 mm 1 mps 751 mmHg 91%
    04:00 +21°C° 0 mm 1 mps 751 mmHg 90%
    05:00 +20°C° 0 mm 2 mps 751 mmHg 88%
    06:00 +23°C° 0 mm 2 mps 751 mmHg 82%
    07:00 +24°C° 0 mm 2 mps 751 mmHg 76%
    08:00 +26°C° 0 mm 2 mps 752 mmHg 69%
    09:00 +27°C° 0 mm 3 mps 752 mmHg 65%
    10:00 +29°C° 0 mm 3 mps 752 mmHg 60%
    11:00 +30°C° 0 mm 3 mps 752 mmHg 56%
    12:00 +30°C° 0.2 mm 3 mps 751 mmHg 55%
    13:00 +31°C° 0.2 mm 3 mps 751 mmHg 54%
    14:00 +31°C° 0.2 mm 3 mps 751 mmHg 54%
    15:00 +31°C° 0 mm 3 mps 751 mmHg 58%
    16:00 +30°C° 0 mm 2 mps 751 mmHg 62%
    17:00 +29°C° 0 mm 2 mps 751 mmHg 66%
    18:00 +28°C° 0 mm 2 mps 752 mmHg 72%
    19:00 +26°C° 0 mm 1 mps 752 mmHg 78%
    20:00 +25°C° 0 mm 1 mps 752 mmHg 84%
    21:00 +24°C° 0.1 mm 1 mps 752 mmHg 85%
    22:00 +23°C° 0.1 mm 1 mps 752 mmHg 87%
    23:00 +23°C° 0.1 mm 1 mps 752 mmHg 89%

    28 July, Saturday

    Time Temperature Precipitation Wind Pressure Humidity
    00:00 +22°C° 0.6 mm 1 mps 752 mmHg 91%
    01:00 +22°C° 0.6 mm 1 mps 753 mmHg 92%
    02:00 +21°C° 0.6 mm 1 mps 753 mmHg 94%
    03:00 +21°C° 0.1 mm 1 mps 753 mmHg 93%
    04:00 +21°C° 0.1 mm 1 mps 753 mmHg 93%
    05:00 +21°C° 0.1 mm 1 mps 753 mmHg 92%
    06:00 +23°C° 0 mm 1 mps 753 mmHg 87%
    07:00 +24°C° 0 mm 1 mps 753 mmHg 81%
    08:00 +26°C° 0 mm 1 mps 753 mmHg 76%
    09:00 +28°C° 0.1 mm 1 mps 753 mmHg 67%
    10:00 +29°C° 0.1 mm 2 mps 753 mmHg 58%
    11:00 +31°C° 0.1 mm 2 mps 753 mmHg 49%
    12:00 +31°C° 0 mm 2 mps 753 mmHg 47%
    13:00 +32°C° 0 mm 2 mps 752 mmHg 46%
    14:00 +32°C° 0 mm 2 mps 752 mmHg 44%
    15:00 +31°C° 0 mm 2 mps 752 mmHg 49%
    16:00 +31°C° 0 mm 1 mps 752 mmHg 55%
    17:00 +30°C° 0 mm 1 mps 752 mmHg 61%
    18:00 +28°C° 0.2 mm 1 mps 752 mmHg 67%
    19:00 +26°C° 0.2 mm 1 mps 752 mmHg 72%
    20:00 +25°C° 0.2 mm 1 mps 752 mmHg 78%
    21:00 +24°C° 0.6 mm 1 mps 752 mmHg 81%
    22:00 +23°C° 0.6 mm 1 mps 752 mmHg 84%
    23:00 +20°C° 0.6 mm 0 mps 753 mmHg 87%
    Show more